Preview of NWS' New Version of Forecast
This preview is not operational and should not be used for support decisions.

Regional Weather Roundup (RWR)

Issued by National Weather Service (NWS)

                            
000
ASUS42 KTBW 180017
RWRFL 
FLORIDA REGIONAL WEATHER ROUNDUP
NATIONAL WEATHER SERVICE TAMPA BAY RUSKIN FL
700 PM EST SUN FEB 17 2019

NOTE: "FAIR" INDICATES FEW OR NO CLOUDS BELOW 12,000 FEET WITH NO
SIGNIFICANT WEATHER AND/OR OBSTRUCTIONS TO VISIBILITY.

FLZ001>010-012>015-112-114-115-180100-
PANHANDLE FLORIDA
  
CITY           SKY/WX    TMP DP  RH WIND       PRES   REMARKS
PENSACOLA      CLOUDY    71  68  90 S7        29.86R                  
PENSACOLA NAS  CLOUDY    69  69 100 S8        29.86R                  
MILTON NAS     CLOUDY    70  70 100 S10       29.86                   
CRESTVIEW      CLOUDY    70  68  93 S9        29.88R                  
DUKE FIELD     CLOUDY    70  70 100 S10       29.87R                  
VALPARAISO     LGT RAIN  68  68 100 S13       29.86R                  
MARY ESTHER    DRIZZLE   68  66  94 S7        29.86                   
PANAMA CITY    CLOUDY    71  68  90 SE10      29.89R                  
TYNDALL AFB    CLOUDY    69  67  92 S16       29.89R                  
APALACHICOLA   MOCLDY    67  65  93 S13       29.91R                  

STATION/POSITION SKY/WX   TEMP    WIND        PRES    WAVE   SWELL
                          AIR SEA DIR/SP/G            HT/PER HT/PER
                          (F)     (DEG/KT/KT) (MB)    (FT/S) (FT/S)
30.1N   87.6W              67     120/  6/  8 1011.2R   3/ 6   2/ 6
29.2N   88.2W                     210/  4/  6 1011.2R   3/ 5   3/ 5
PANAMA CITY BEAC           65 63  150/ 14/ 15 1012.4R
TOWER C                    68     160/ 17/ 18 1013.3R

$$
FLZ011-016>038-118-127-128-134-139-239-180100-
NORTH FLORIDA
  
CITY           SKY/WX    TMP DP  RH WIND       PRES   REMARKS
MARIANNA       MOCLDY    75  69  81 S15       29.87R                  
TALLAHASSEE    CLOUDY    71  68  90 SE8       29.92R                  
PERRY          MOCLDY    73  70  91 S9        29.95R                  
LIVE OAK       MOCLDY    73  66  78 CALM      29.94R                  
CROSS CITY     CLOUDY    73  70  90 S10       29.96R                  
LAKE CITY      FAIR      72  64  78 SW7       29.96R                  
GAINESVILLE    FAIR      77  66  68 SW7       29.98R                  
WILLISTON        N/A    N/A N/A N/A MISG        N/A                   
PALATKA        CLOUDY   N/A N/A N/A W5        29.96R                  
MAYPORT NAS    FAIR      66  62  87 SE8       29.96R                  
JACKSONVILLE   MOCLDY    68  63  84 SE3       29.95R                  
JAX NAS        FAIR      71  64  78 E7        29.96R                  
JAX CECIL      PTCLDY    75  64  69 VRB5      29.95R                  
FERNANDINA BEA FAIR      63  62  95 SE6       29.96S                  
ST AUGUSTINE   MOCLDY    68  63  84 S6        29.97R                  
PALM COAST     CLEAR     66  63  88 CALM      29.96R                  

STATION/POSITION SKY/WX   TEMP    WIND        PRES    WAVE   SWELL
                          AIR SEA DIR/SP/G            HT/PER HT/PER
                          (F)     (DEG/KT/KT) (MB)    (FT/S) (FT/S)
SHELL POINT      NOT AVBL
KEATON BEACH               68     160/ 15/ 16 1014.4R
CEDAR KEY                  69     200/ 12/ 15 1014.7R
FERNANDINA                 65 59  140/  3/  6 1015.2R
30.7N   81.3W                 60                N/A     2/ 6
MAYPORT                    65 59  120/  4/  6 1014.5R
31.4N   80.9W              60 58  130/  8/ 10 1014.5R   3/ 7   2/ 7
ST AUGUSTINE               64 60  200/  6/  7 1015.0R

$$
FLZ040-043>046-052-053-057-058-063-144-180100-
INTERIOR CENTRAL FLORIDA
  
CITY           SKY/WX    TMP DP  RH WIND       PRES   REMARKS
OCALA          FAIR      76  66  71 SW6       29.97R                  
LEESBURG       MOCLDY    76  64  66 SW3       29.97R                  
SANFORD        FAIR      79  63  57 S5        29.96R                  
ORLANDO EXEC   FAIR      79  63  57 S3        29.97R                  
ORLANDO INTL   FAIR      79  64  60 S3        29.97R                  
KISSIMMEE      MOCLDY    79  66  64 SW5       29.98R                  
WINTER HAVEN   FAIR      80  65  59 SW7       29.98R                  
LAKELAND       CLEAR     75  64  69 S8        29.98R                  
BARTOW         FAIR      77  64  65 SW7       29.97R                  
SEBRING        FAIR      78  64  62 SW6       29.98R                  
OKEECHOBEE     CLOUDY    77  66  69 S6        29.97R                  

$$
FLZ041-047-054-059-064-141-147-180100-
EAST CENTRAL FLORIDA
  
CITY           SKY/WX    TMP DP  RH WIND       PRES   REMARKS
ORMOND BEACH   CLEAR     70  70 100 SE7       29.96R                  
DAYTONA BEACH  FAIR      72  67  84 CALM      29.96R                  
DELAND         FAIR      79  63  57 CALM      29.96R                  
NEW SMYRNA BEA PTCLDY    72  66  83 S8        29.98R                  
JFK SPACE CTR  FAIR      73  68  83 S9        29.97R                  
TITUSVILLE     PTCLDY    77  66  69 SE12      29.98R                  
CAPE CANAVERAL FAIR      71  68  89 S12       29.97R                  
PATRICK AFB    FAIR      71  71 100 S14       29.97R                  
MELBOURNE      FAIR      76  68  76 SE9       29.97R                  
VERO BEACH     FAIR      75  68  78 SE10      29.98R                  
FT PIERCE      FAIR      77  66  68 SE9       29.98R                  

STATION/POSITION SKY/WX   TEMP    WIND        PRES    WAVE   SWELL
                          AIR SEA DIR/SP/G            HT/PER HT/PER
                          (F)     (DEG/KT/KT) (MB)    (FT/S) (FT/S)
28.5N   80.2W              72     160/ 12/ 14 1015.6R   2/ 8   2/ 8
28.9N   78.5W              75 76  170/ 10/ 12 1017.2R   3/ 8   2/ 8
TRIDENT PIER               69 66  160/  9/ 11 1016.1R
28.4N   80.5W                 66                N/A     1/ 9

$$
FLZ050-056-061-142-242-148-248-149-249-151-251-155-255-
160-260-180100-
WEST CENTRAL FLORIDA
  
CITY           SKY/WX    TMP DP  RH WIND       PRES   REMARKS
CRYSTAL RIVER  FAIR      73  68  83 SW3       29.98R                  
INVERNESS      FAIR      77  68  73 SW3       29.98R                  
BROOKSVILLE    FAIR      76  65  68 SW9       29.98R                  
CLEARWATER AIR FAIR      73  66  78 S8        29.97S                  
ST PETE CLEARW FAIR      74  67  78 S13       29.98R                  
TAMPA INTL     FAIR      74  68  81 S12       29.98R                  
TAMPA EXEC     FAIR      75  64  69 SW6       29.99R                  
PLANT CITY     FAIR      79  64  61 S5        30.00R                  
MACDILL AFB    FAIR      72  67  84 S10       29.97R                  
PETER O KNIGHT MOCLDY    75  68  78 SW8       29.98R                  
ST PETERSBURG  CLEAR     75  68  78 S10       29.95                   
SARASOTA       FAIR      76  69  79 S10       29.96R                  
VENICE         FAIR      73  70  88 S9        29.99R                  

STATION/POSITION SKY/WX   TEMP    WIND        PRES    WAVE   SWELL
                          AIR SEA DIR/SP/G            HT/PER HT/PER
                          (F)     (DEG/KT/KT) (MB)    (FT/S) (FT/S)
27.3N   84.2W                 71                N/A     4/ 6
CLEARWATER BEACH           73 69  160/ 12/ 15 1015.0R
MIDDLE TAMPA BAY           73     200/ 12/ 14 1015.0R
VENICE                     71 68  150/  9/ 11   N/A

$$
FLZ066-069-070-075>078-162-262-165-265-180100-
SOUTHWEST FLORIDA AND KEYS
  
CITY           SKY/WX    TMP DP  RH WIND       PRES   REMARKS
PUNTA GORDA    FAIR      75  64  68 SW8       30.00R                  
FT MYERS       FAIR      76  65  68 S3        29.98R                  
SOUTHWEST INTL FAIR      77  63  61 S6        29.98R                  
NAPLES         FAIR      76  68  76 SE7       29.98R                  
MARCO ISLAND   FAIR      75  71  87 SE8       29.99R                  
IMMOKALEE      FAIR      77  63  61 SW3       29.97R                  
MARATHON       FAIR      81  73  76 SE10      29.98R                  
KEY WEST NAS   FAIR      79  72  79 SE15      29.97R                  
KEY WEST INTL  FAIR      79  72  79 SE16      29.97R                  

STATION/POSITION SKY/WX   TEMP    WIND        PRES    WAVE   SWELL
                          AIR SEA DIR/SP/G            HT/PER HT/PER
                          (F)     (DEG/KT/KT) (MB)    (FT/S) (FT/S)
NAPLES                     77 72  120/  5/  9 1015.1R
26.0N   85.6W              79 80  170/ 16/ 19 1012.4R   6/ 7   2/16
DRY TORTUGAS               77     130/ 13/ 14 1014.2R
SAND KEY                   77                 1014.6R
SOMBRERO KEY               78                 1014.5R
LONG KEY                   78 78  120/ 11/ 13 1014.8R
MOLASSES REEF              78 78  160/ 14/ 15 1015.8

$$
FLZ067-068-071>074-168-172>174-180100-
SOUTHEAST FLORIDA 
  
CITY           SKY/WX    TMP DP  RH WIND       PRES   REMARKS
W PALM BEACH   FAIR      77  68  73 S12       30.01R                  
BOCA RATON     CLEAR     77  70  78 SE7       30.01R                  
FT LAUDER-EXEC FAIR      77  71  82 SE9       30.01R                  
FT LAUDERDALE  FAIR      77  71  82 S9        30.00R                  
POMPANO BEACH  FAIR      78  69  73 S10       30.01R                  
PEMBROKE PINES FAIR      77  68  73 SE9       30.02R                  
OPA LOCKA      FAIR      77  69  76 SE9       30.02R                  
MIAMI          FAIR      77  72  84 SE7       30.01R                  
WEST KENDALL   FAIR      77  71  82 SE9       30.00S                  
HOMESTEAD      FAIR      77  72  83 E7        30.00R                  

STATION/POSITION SKY/WX   TEMP    WIND        PRES    WAVE   SWELL
                          AIR SEA DIR/SP/G            HT/PER HT/PER
                          (F)     (DEG/KT/KT) (MB)    (FT/S) (FT/S)
PORT EVERGLADES            77     160/  7/ 11 1016.3R
VIRGINIA KEY               77 77  130/  5/  9 1015.6R
LAKE WORTH                 78 77  200/ 16/ 18 1017.2R
FOWEY ROCKS                77 76  140/ 14/ 15 1016.8R
SETTLEMENT POINT           76     160/  7/  8 1017.3R

$$